User: anonymous
Location: Oshawa
(43.9000°N, 78.8670°W)
Time: 11:22:16
(UTC-04:00)
Language:

Cosmos 1953 Rocket - Orbit

View from above orbital plane
View from above orbital plane
View from above satellite
View from above satellite

Ground track
Ground track

The orbit data is extracted from the following two-line orbital elements,

1 19211U 88050B   14205.16564913  .00000140  00000-0  14470-4 0  2912
2 19211 082.5277 112.6095 0021970 010.3951 148.9860 14.82421111409856
Epoch (UTC): 24 July 2014 03:58:32
Eccentricity: 0.0021970
inclination: 82.5277°
perigee height: 606 km
apogee height: 637 km
right ascension of ascending node: 112.6095°
argument of perigee: 10.3951°
revolutions per day: 14.82421111
mean anomaly at epoch: 148.9860°
orbit number at epoch: 40985

The dashed part of the orbit path shows where the satellite is in the earth's shadow,  

DLR